If you wish to contribute or participate in the discussions about articles you are invited to join SKYbrary as a registered user

 Actions

Arctic Village Airport

From SKYbrary Wiki

PARC
Airport
ICAO: PARC – IATA: ARC
Summary
Name Arctic Village Airport
Region North America
Territory Alaska US.gif
Location , Alaska
Serving Arctic Village
Elevation 637.642 m
2,092 ft
2,092 ft637.642 m
Type medium airport
Coordinates 68° 6' 52.92" N, 145° 34' 44.40" W
Runways
Designator Length Width Surface ROPS
2/20 1372 m4,501.312 ft
23 m75.459 ft
GVL /


METAR
Observation PARC 250856Z AUTO 33003KT 10SM CLR M12/M13 A2994 RMK AO2 SLP203 T11171133 400111183 55001 FZRANO
Station Arctic Village, Arctic Village Airport
Date/Time 25 March 2019 08:56:00
Wind direction 330°
Wind speed 03 kts
Lowest cloud amount n/a
Temperature
Dew point
Humidity 87%
QNH hPa
Weather condition n/a